FW4628 Weather Reports


Display with metric or nautical units.
time (UTC)temp
F
wind
direction
speed
MPH
gust
MPH
rain 1hr
in
rain 24hr
in
rain mn
in
humidity
%
barometer
mb
20260507230508 70 256 0.0 0.0 0.00 0.00 0.00 42 1007.7
20260507230413 71 248 0.0 0.0 0.00 0.00 0.00 42 1007.7
20260507230041 70 349 0.0 0.0 0.00 0.00 0.00 42 1007.7
20260507225906 71 346 0.0 0.0 0.00 0.00 0.00 42 1007.7
20260507225515 70 16 0.0 0.0 0.00 0.00 0.00 42 1007.7
20260507225426 71 32 0.0 0.0 0.00 0.00 0.00 42 1007.7
20260507225045 70 254 0.0 0.0 0.00 0.00 0.00 43 1007.8
20260507224916 70 254 0.0 0.0 0.00 0.00 0.00 43 1007.9
20260507224510 70 293 0.0 0.0 0.00 0.00 0.00 43 1007.9
20260507224404 70 360 0.0 0.0 0.00 0.00 0.00 43 1008.0
20260507224044 70 265 0.0 0.0 0.00 0.00 0.00 43 1007.9
20260507223855 70 240 0.0 0.0 0.00 0.00 0.00 43 1008.0
20260507223519 69 173 0.0 0.0 0.00 0.00 0.00 43 1008.0
20260507223420 70 195 0.0 0.0 0.00 0.00 0.00 42 1008.0
20260507223048 69 195 0.0 0.0 0.00 0.00 0.00 43 1008.0
20260507222908 69 225 0.0 0.0 0.00 0.00 0.00 44 1008.1
20260507222523 69 225 0.0 0.0 0.00 0.00 0.00 44 1008.1
20260507222359 69 274 0.0 0.0 0.00 0.00 0.00 43 1008.1
20260507222055 69 230 0.0 0.0 0.00 0.00 0.00 43 1008.2
20260507221925 70 282 0.0 0.0 0.00 0.00 0.00 44 1008.2
20260507221521 69 223 0.0 0.0 0.00 0.00 0.00 42 1008.2
20260507221413 70 223 0.0 0.0 0.00 0.00 0.00 41 1008.2
20260507221050 69 234 0.0 0.0 0.00 0.00 0.00 41 1008.2
20260507220904 70 321 0.0 0.0 0.00 0.00 0.00 42 1008.3
20260507220521 69 251 0.0 0.0 0.00 0.00 0.00 42 1008.2
20260507220427 70 345 0.0 0.0 0.00 0.00 0.00 42 1008.3
20260507220054 69 250 0.0 0.0 0.00 0.00 0.00 41 1008.3
20260507215916 70 210 0.0 0.0 0.00 0.00 0.00 40 1008.3
20260507215528 69 222 0.0 0.0 0.00 0.00 0.00 40 1008.3
20260507215418 70 246 0.0 0.0 0.00 0.00 0.00 40 1008.4
20260507215048 69 250 0.0 0.0 0.00 0.00 0.00 40 1008.4
20260507214916 69 250 0.0 0.0 0.00 0.00 0.00 39 1008.5
20260507214507 69 250 0.0 0.0 0.00 0.00 0.00 39 1008.5
20260507214407 69 250 0.0 0.0 0.00 0.00 0.00 39 1008.5
20260507214042 68 273 0.0 0.0 0.00 0.00 0.00 40 1008.5
20260507213901 69 256 0.0 0.0 0.00 0.00 0.00 40 1008.6
20260507213523 68 259 0.0 0.0 0.00 0.00 0.00 41 1008.6
20260507213401 69 259 0.0 0.0 0.00 0.00 0.00 42 1008.6
20260507213048 68 282 0.0 0.0 0.00 0.00 0.00 42 1008.6
20260507212941 68 282 0.0 0.0 0.00 0.00 0.00 42 1008.7
20260507212601 68 15 0.0 0.0 0.00 0.00 0.00 42 1008.6
20260507212411 68 252 0.0 0.0 0.00 0.00 0.00 43 1008.8
20260507212029 67 267 0.0 0.0 0.00 0.00 0.00 42 1008.7
20260507211913 67 267 0.0 0.0 0.00 0.00 0.00 42 1008.8
20260507211540 67 267 0.0 0.0 0.00 0.00 0.00 42 1008.7
20260507211436 67 244 0.0 0.0 0.00 0.00 0.00 43 1008.8
20260507211049 67 223 0.0 0.0 0.00 0.00 0.00 44 1008.8
20260507210904 67 222 0.0 0.0 0.00 0.00 0.00 44 1008.9
20260507210519 67 260 0.0 0.0 0.00 0.00 0.00 44 1008.9
20260507210418 67 259 0.0 0.0 0.00 0.00 0.00 43 1008.9
20260507210032 66 230 0.0 0.0 0.00 0.00 0.00 42 1009.0
20260507205908 67 242 0.0 0.0 0.00 0.00 0.00 42 1009.0
20260507205557 66 248 0.0 0.0 0.00 0.00 0.00 43 1009.0
20260507205403 67 248 0.0 0.0 0.00 0.00 0.00 42 1009.1
20260507205032 66 207 0.0 0.0 0.00 0.00 0.00 43 1009.1
20260507204856 67 245 0.0 0.0 0.00 0.00 0.00 43 1009.2
20260507204502 66 312 0.0 0.0 0.00 0.00 0.00 43 1009.2
20260507204422 66 39 0.0 0.0 0.00 0.00 0.00 43 1009.2
20260507204034 66 225 0.0 0.0 0.00 0.00 0.00 42 1009.2
20260507203913 66 238 0.0 0.0 0.00 0.00 0.00 42 1009.3
20260507203559 66 242 0.0 0.0 0.00 0.00 0.00 41 1009.3
20260507203405 66 217 0.0 0.0 0.00 0.00 0.00 42 1009.4
20260507203033 65 215 0.0 0.0 0.00 0.00 0.00 43 1009.3
20260507202924 66 215 0.0 0.0 0.00 0.00 0.00 43 1009.4
20260507202559 65 215 0.0 0.0 0.00 0.00 0.00 43 1009.4
20260507202414 66 98 0.0 0.0 0.00 0.00 0.00 43 1009.5
20260507202038 65 295 0.0 0.0 0.00 0.00 0.00 42 1009.5
20260507201907 66 295 0.0 0.0 0.00 0.00 0.00 43 1009.6
20260507201506 65 251 0.0 0.0 0.00 0.00 0.00 43 1009.6
20260507201409 65 250 0.0 0.0 0.00 0.00 0.00 43 1009.6
20260507201039 65 238 0.0 0.0 0.00 0.00 0.00 43 1009.6
20260507200857 65 279 0.0 0.0 0.00 0.00 0.00 43 1009.6
20260507200514 64 217 0.0 0.0 0.00 0.00 0.00 43 1009.7
20260507200419 65 217 0.0 0.0 0.00 0.00 0.00 43 1009.7
20260507200043 64 217 0.0 0.0 0.00 0.00 0.00 43 1009.7
20260507195914 65 202 0.0 0.0 0.00 0.00 0.00 43 1009.7
20260507195507 65 263 0.0 0.0 0.00 0.00 0.00 42 1009.7
20260507195404 65 171 0.0 0.0 0.00 0.00 0.00 42 1009.8
20260507195051 64 158 0.0 0.0 0.00 0.00 0.00 42 1009.7
20260507194927 65 158 0.0 0.0 0.00 0.00 0.00 42 1009.9
20260507194556 64 158 0.0 0.0 0.00 0.00 0.00 42 1009.8
20260507194408 65 158 0.0 0.0 0.00 0.00 0.00 42 1009.9
20260507194030 64 167 0.0 0.0 0.00 0.00 0.00 43 1009.9
20260507193927 64 236 0.0 0.0 0.00 0.00 0.00 43 1009.9
20260507193541 63 236 0.0 0.0 0.00 0.00 0.00 43 1010.0
20260507193357 63 236 0.0 0.0 0.00 0.00 0.00 43 1010.0
20260507193012 63 236 0.0 0.0 0.00 0.00 0.00 43 1010.1
20260507192919 63 128 0.0 0.0 0.00 0.00 0.00 43 1010.1
20260507192545 63 146 0.0 0.0 0.00 0.00 0.00 43 1010.2
20260507192409 63 146 0.0 0.0 0.00 0.00 0.00 42 1010.2
20260507192013 63 146 0.0 0.0 0.00 0.00 0.00 42 1010.2
20260507191905 63 146 0.0 0.0 0.00 0.00 0.00 42 1010.2
20260507191553 63 146 0.0 0.0 0.00 0.00 0.00 41 1010.2
20260507191401 63 160 0.0 0.0 0.00 0.00 0.00 42 1010.2
20260507191023 62 160 0.0 0.0 0.00 0.00 0.00 42 1010.2
20260507190922 63 160 0.0 0.0 0.00 0.00 0.00 42 1010.3
20260507190533 62 159 0.0 0.0 0.00 0.00 0.00 42 1010.3
20260507190409 63 207 0.0 0.0 0.00 0.00 0.00 42 1010.3
20260507190058 62 207 0.0 0.0 0.00 0.00 0.00 42 1010.3
20260507185902 62 207 0.0 0.0 0.00 0.00 0.00 42 1010.4
20260507185526 62 248 0.0 0.0 0.00 0.00 0.00 42 1010.4
20260507185421 62 248 0.0 0.0 0.00 0.00 0.00 42 1010.4
20260507185056 62 249 0.0 0.0 0.00 0.00 0.00 41 1010.5
20260507184910 62 261 0.0 0.0 0.00 0.00 0.00 41 1010.5
20260507184529 62 234 0.0 0.0 0.00 0.00 0.00 41 1010.5
20260507184434 62 255 0.0 0.0 0.00 0.00 0.00 41 1010.5
20260507184042 62 339 0.0 0.0 0.00 0.00 0.00 41 1010.5
20260507183931 62 14 0.0 0.0 0.00 0.00 0.00 40 1010.6
20260507183553 62 297 0.0 0.0 0.00 0.00 0.00 40 1010.5
20260507183404 62 311 0.0 0.0 0.00 0.00 0.00 40 1010.6
20260507183025 61 293 0.0 0.0 0.00 0.00 0.00 40 1010.6
20260507182900 61 38 0.0 0.0 0.00 0.00 0.00 40 1010.6
20260507182600 61 351 0.0 0.0 0.00 0.00 0.00 39 1010.6
20260507182423 61 53 0.0 0.0 0.00 0.00 0.00 40 1010.7
20260507182019 60 50 0.0 0.0 0.00 0.00 0.00 40 1010.7
20260507181911 60 50 0.0 0.0 0.00 0.00 0.00 40 1010.7
20260507181600 59 50 0.0 0.0 0.00 0.00 0.00 40 1010.8
20260507181401 60 50 0.0 0.0 0.00 0.00 0.00 40 1010.8
20260507181019 59 273 0.0 0.0 0.00 0.00 0.00 40 1010.9
20260507180921 60 273 0.0 0.0 0.00 0.00 0.00 40 1010.9
20260507180555 59 319 0.0 0.0 0.00 0.00 0.00 40 1010.9
20260507180416 59 300 0.0 0.0 0.00 0.00 0.00 39 1010.9
20260507180028 59 5 0.0 0.0 0.00 0.00 0.00 39 1010.9
20260507175907 59 11 0.0 0.0 0.00 0.00 0.00 39 1010.9
20260507175553 58 5 0.0 0.0 0.00 0.00 0.00 40 1010.9
20260507175357 58 5 0.0 0.0 0.00 0.00 0.00 40 1011.0
20260507175028 58 12 0.0 0.0 0.00 0.00 0.00 39 1011.0
20260507174916 58 5 0.0 0.0 0.00 0.00 0.00 39 1011.1
20260507174541 57 58 0.0 0.0 0.00 0.00 0.00 39 1011.0
20260507174410 58 39 0.0 0.0 0.00 0.00 0.00 39 1011.1
20260507174104 57 19 0.0 0.0 0.00 0.00 0.00 40 1011.1
20260507173902 57 46 0.0 0.0 0.00 0.00 0.00 40 1011.1
20260507173534 57 41 0.0 0.0 0.00 0.00 0.00 40 1011.1
20260507173421 57 12 0.0 0.0 0.00 0.00 0.00 40 1011.2
20260507173043 57 30 0.0 0.0 0.00 0.00 0.00 39 1011.2
20260507172944 57 22 0.0 0.0 0.00 0.00 0.00 39 1011.2
20260507172554 57 5 0.0 0.0 0.00 0.00 0.00 39 1011.1
20260507172411 57 21 0.0 0.0 0.00 0.00 0.00 39 1011.2
20260507172009 56 16 0.0 0.0 0.00 0.00 0.00 39 1011.2
20260507171858 57 328 0.0 0.0 0.00 0.00 0.00 39 1011.2
20260507171556 56 350 0.0 0.0 0.00 0.00 0.00 39 1011.2
20260507171417 57 22 0.0 0.0 0.00 0.00 0.00 39 1011.2
20260507171003 56 22 0.0 0.0 0.00 0.00 0.00 39 1011.2
20260507170921 56 355 0.0 0.0 0.00 0.00 0.00 39 1011.2
20260507170538 56 346 0.0 0.0 0.00 0.00 0.00 38 1011.2
20260507170413 56 34 0.0 0.0 0.00 0.00 0.00 38 1011.2
20260507170004 56 31 0.0 0.0 0.00 0.00 0.00 38 1011.2
20260507165935 56 355 0.0 0.0 0.00 0.00 0.00 38 1011.3
20260507165505 56 311 0.0 0.0 0.00 0.00 0.00 37 1011.2
20260507165402 56 82 0.0 0.0 0.00 0.00 0.00 37 1011.3
20260507165046 55 22 0.0 0.0 0.00 0.00 0.00 37 1011.2
20260507164925 56 22 0.0 0.0 0.00 0.00 0.00 37 1011.2
20260507164508 55 17 0.0 0.0 0.00 0.00 0.00 37 1011.3
20260507164417 56 19 0.0 0.0 0.00 0.00 0.00 37 1011.4
20260507164049 55 27 0.0 0.0 0.00 0.00 0.00 37 1011.3
20260507163907 55 355 0.0 0.0 0.00 0.00 0.00 37 1011.3
20260507163504 54 5 0.0 0.0 0.00 0.00 0.00 37 1011.3
20260507163355 55 44 0.0 0.0 0.00 0.00 0.00 37 1011.3
20260507163045 54 360 0.0 0.0 0.00 0.00 0.00 37 1011.3
20260507162918 54 18 0.0 0.0 0.00 0.00 0.00 37 1011.4
20260507162511 54 59 0.0 0.0 0.00 0.00 0.00 37 1011.3
20260507162420 54 44 0.0 0.0 0.00 0.00 0.00 37 1011.3
20260507162046 53 70 0.0 0.0 0.00 0.00 0.00 37 1011.2
20260507161909 54 55 0.0 0.0 0.00 0.00 0.00 37 1011.3
20260507161507 53 47 0.0 0.0 0.00 0.00 0.00 37 1011.3
20260507161358 54 63 0.0 0.0 0.00 0.00 0.00 37 1011.3
20260507161045 53 16 0.0 0.0 0.00 0.00 0.00 37 1011.3
20260507160921 54 10 0.0 0.0 0.00 0.00 0.00 37 1011.3
20260507160510 53 15 0.0 0.0 0.00 0.00 0.00 37 1011.3
20260507160409 54 360 0.0 0.0 0.00 0.00 0.00 37 1011.4
20260507160042 53 5 0.0 0.0 0.00 0.00 0.00 37 1011.3
20260507155857 54 360 0.0 0.0 0.00 0.00 0.00 37 1011.3
20260507155507 53 355 0.0 0.0 0.00 0.00 0.00 37 1011.3
20260507155438 54 15 0.0 0.0 0.00 0.00 0.00 36 1011.3
20260507155013 53 26 0.0 0.0 0.00 0.00 0.00 36 1011.3
20260507154911 54 5 0.0 0.0 0.00 0.00 0.00 36 1011.4
20260507154547 53 24 0.0 0.0 0.00 0.00 0.00 36 1011.3
20260507154405 54 350 0.0 0.0 0.00 0.00 0.00 36 1011.3
20260507154019 53 19 0.0 0.0 0.00 0.00 0.00 36 1011.3
20260507153855 54 351 0.0 0.0 0.00 0.00 0.00 36 1011.3
20260507153553 53 5 0.0 0.0 0.00 0.00 0.00 36 1011.3
20260507153422 54 12 0.0 0.0 0.00 0.00 0.00 36 1011.4
20260507153020 53 5 0.0 0.0 0.00 0.00 0.00 35 1011.3
20260507152909 54 14 0.0 0.0 0.00 0.00 0.00 35 1011.4
20260507152547 53 34 0.0 0.0 0.00 0.00 0.00 35 1011.4
20260507152400 54 13 0.0 0.0 0.00 0.00 0.00 35 1011.4
20260507152022 53 19 0.0 0.0 0.00 0.00 0.00 34 1011.3
20260507151855 54 360 0.0 0.0 0.00 0.00 0.00 34 1011.4
20260507151556 53 346 0.0 0.0 0.00 0.00 0.00 33 1011.3
20260507151359 53 24 0.0 0.0 0.00 0.00 0.00 34 1011.4
20260507151003 53 19 0.0 0.0 0.00 0.00 0.00 34 1011.3
20260507150919 53 24 0.0 0.0 0.00 0.00 0.00 34 1011.3
20260507150623 53 5 0.0 0.0 0.00 0.00 0.00 34 1011.3
20260507052909 56 21 0.0 0.0 0.00 0.00 0.00 20 1011.7
20260507052501 56 14 0.0 0.0 0.00 0.00 0.00 21 1011.6
20260507052401 56 33 0.0 0.0 0.00 0.00 0.00 21 1011.6
20260507052038 56 27 0.0 0.0 0.00 0.00 0.00 21 1011.6
20260507051859 57 36 0.0 0.0 0.00 0.00 0.00 22 1011.7
20260507051511 56 23 0.0 0.0 0.00 0.00 0.00 22 1011.7
20260507051420 57 360 0.0 0.0 0.00 0.00 0.00 22 1011.6
20260507051043 56 71 0.0 0.0 0.00 0.00 0.00 23 1011.6
20260507050912 57 355 0.0 0.0 0.00 0.00 0.00 23 1011.7
20260507050510 56 360 0.0 0.0 0.00 0.00 0.00 24 1011.7
20260507050404 57 5 0.0 0.0 0.00 0.00 0.00 24 1011.7
20260507050041 56 355 0.0 0.0 0.00 0.00 0.00 25 1011.6
20260507045945 57 355 0.0 0.0 0.00 0.00 0.00 25 1011.7
20260507045548 56 9 0.0 0.0 0.00 0.00 0.00 25 1011.6
20260507045419 57 5 0.0 0.0 0.00 0.00 0.00 26 1011.7
20260507045021 57 5 0.0 0.0 0.00 0.00 0.00 26 1011.6
20260507044918 57 31 0.0 0.0 0.00 0.00 0.00 27 1011.7
20260507044601 57 28 0.0 0.0 0.00 0.00 0.00 27 1011.6
20260507044413 57 13 0.0 0.0 0.00 0.00 0.00 27 1011.7
20260507044028 57 337 0.0 0.0 0.00 0.00 0.00 28 1011.6
20260507043930 58 16 0.0 0.0 0.00 0.00 0.00 28 1011.6
20260507043535 57 20 0.0 0.0 0.00 0.00 0.00 28 1011.6
20260507043356 58 18 0.0 0.0 0.00 0.00 0.00 28 1011.6
20260507043010 57 360 0.0 0.0 0.00 0.00 0.00 29 1011.5
20260507042926 58 9 0.0 0.0 0.00 0.00 0.00 29 1011.6
20260507042522 58 17 0.0 0.0 0.00 0.00 0.00 29 1011.5
20260507042445 58 21 0.0 0.0 0.00 0.00 0.00 29 1011.5
20260507042039 58 13 0.0 0.0 0.00 0.00 0.00 29 1011.4
20260507041919 58 9 0.0 0.0 0.00 0.00 0.00 30 1011.4
20260507041502 58 11 0.0 0.0 0.00 0.00 0.00 30 1011.4
20260507041410 58 360 0.0 0.0 0.00 0.00 0.00 30 1011.4
20260507041038 58 11 0.0 0.0 0.00 0.00 0.00 29 1011.3
20260507040936 59 20 0.0 0.0 0.00 0.00 0.00 30 1011.3
20260507040556 58 360 0.0 0.0 0.00 0.00 0.00 30 1011.2
20260507040431 59 22 0.0 0.0 0.00 0.00 0.00 30 1011.2
20260507040058 58 9 0.0 0.0 0.00 0.00 0.00 30 1011.1
20260507035859 59 9 0.0 0.0 0.00 0.00 0.00 29 1011.2
20260507035525 59 25 0.0 0.0 0.00 0.00 0.00 29 1011.1
20260507035358 59 5 0.0 0.0 0.00 0.00 0.00 29 1011.1
20260507035043 59 348 0.0 0.0 0.00 0.00 0.00 29 1011.0
20260507034918 59 31 0.0 0.0 0.00 0.00 0.00 29 1011.0
20260507034504 59 23 0.0 0.0 0.00 0.00 0.00 29 1010.9
20260507034410 60 5 0.0 0.0 0.00 0.00 0.00 29 1010.9
20260507034036 59 17 0.0 0.0 0.00 0.00 0.00 29 1010.9
20260507033900 60 336 0.0 0.0 0.00 0.00 0.00 29 1010.9
20260507033506 59 5 0.0 0.0 0.00 0.00 0.00 29 1010.8
20260507033424 60 5 0.0 0.0 0.00 0.00 0.00 29 1010.8
20260507033037 59 30 0.0 0.0 0.00 0.00 0.00 29 1010.7
20260507032914 60 355 0.0 0.0 0.00 0.00 0.00 29 1010.7
20260507032506 59 5 0.0 0.0 0.00 0.00 0.00 29 1010.7
20260507032416 60 34 0.0 0.0 0.00 0.00 0.00 29 1010.7
20260507032039 59 9 0.0 0.0 0.00 0.00 0.00 29 1010.6
20260507031911 60 5 0.0 0.0 0.00 0.00 0.00 29 1010.6
20260507031604 59 355 0.0 0.0 0.00 0.00 0.00 30 1010.5
20260507031403 60 355 0.0 0.0 0.00 0.00 0.00 30 1010.6
20260507031025 59 32 0.0 0.0 0.00 0.00 0.00 31 1010.5
20260507030922 60 35 0.0 0.0 0.00 0.00 0.00 31 1010.5
20260507030554 60 16 0.0 0.0 0.00 0.00 0.00 31 1010.4
20260507030414 60 9 0.0 0.0 0.00 0.00 0.00 31 1010.5
20260507030026 60 5 0.0 0.0 0.00 0.00 0.00 32 1010.4
20260507025902 60 360 0.0 0.0 0.00 0.00 0.00 32 1010.5
20260507025554 60 355 0.0 0.0 0.00 0.00 0.00 33 1010.4
20260507025357 61 9 0.0 0.0 0.00 0.00 0.00 33 1010.3
20260507025019 60 355 0.0 0.0 0.00 0.00 0.00 34 1010.3
20260507024919 61 12 0.0 0.0 0.00 0.00 0.00 34 1010.3
20260507024552 60 16 0.0 0.0 0.00 0.00 0.00 34 1010.3
20260507024411 61 14 0.0 0.0 0.00 0.00 0.00 34 1010.2
20260507024025 61 349 0.0 0.0 0.00 0.00 0.00 35 1010.2
20260507023900 61 19 0.0 0.0 0.00 0.00 0.00 36 1010.2
20260507023551 61 346 0.0 0.0 0.00 0.00 0.00 36 1010.2
20260507023425 61 14 0.0 0.0 0.00 0.00 0.00 36 1010.2
20260507023016 61 18 0.0 0.0 0.00 0.00 0.00 37 1010.2
20260507022911 62 22 0.0 0.0 0.00 0.00 0.00 37 1010.2
20260507022548 61 13 0.0 0.0 0.00 0.00 0.00 37 1010.2
20260507022402 62 355 0.0 0.0 0.00 0.00 0.00 38 1010.2
20260507022020 62 336 0.0 0.0 0.00 0.00 0.00 38 1010.2
20260507021942 62 23 0.0 0.0 0.00 0.00 0.00 38 1010.2
20260507021522 62 355 0.0 0.0 0.00 0.00 0.00 39 1010.2
20260507021409 62 360 0.0 0.0 0.00 0.00 0.00 39 1010.2
20260507021058 62 17 0.0 0.0 0.00 0.00 0.00 39 1010.2
20260507020907 63 30 0.0 0.0 0.00 0.00 0.00 39 1010.2
20260507020502 62 13 0.0 0.0 0.00 0.00 0.00 39 1010.2
20260507020401 63 23 0.0 0.0 0.00 0.00 0.00 39 1010.1
20260507020036 63 30 0.0 0.0 0.00 0.00 0.00 39 1010.1
20260507015925 63 360 0.0 0.0 0.00 0.00 0.00 39 1010.3
20260507015516 63 360 0.0 0.0 0.00 0.00 0.00 39 1010.3
20260507015422 63 12 0.0 0.0 0.00 0.00 0.00 39 1010.3
20260507015050 63 23 0.0 0.0 0.00 0.00 0.00 39 1010.3
20260507014916 63 349 0.0 0.0 0.00 0.00 0.00 40 1010.3
20260507014519 63 5 0.0 0.0 0.00 0.00 0.00 40 1010.3
20260507014404 64 17 0.0 0.0 0.00 0.00 0.00 40 1010.4
20260507014050 63 355 0.0 0.0 0.00 0.00 0.00 40 1010.3
20260507013925 64 355 0.0 0.0 0.00 0.00 0.00 40 1010.4
20260507013559 63 345 0.0 0.0 0.00 0.00 0.00 40 1010.3
20260507013423 64 13 0.0 0.0 0.00 0.00 0.00 40 1010.3
20260507013020 64 360 0.0 0.0 0.00 0.00 0.00 40 1010.2
20260507012910 64 24 0.0 0.0 0.00 0.00 0.00 40 1010.2
20260507012559 64 19 0.0 0.0 0.00 0.00 0.00 40 1010.3
20260507012414 64 5 0.0 0.0 0.00 0.00 0.00 40 1010.3
20260507012015 64 19 0.0 0.0 0.00 0.00 0.00 40 1010.1
20260507011913 65 355 0.0 0.0 0.00 0.00 0.00 40 1010.2
20260507011543 65 11 0.0 0.0 0.00 0.00 0.00 40 1010.2
20260507011408 65 360 0.0 0.0 0.00 0.00 0.00 40 1010.2
20260507011021 65 28 0.0 0.0 0.00 0.00 0.00 40 1010.1
20260507010858 65 17 0.0 0.0 0.00 0.00 0.00 39 1010.2
20260507010551 65 11 0.0 0.0 0.00 0.00 0.00 39 1010.2
20260507010401 66 360 0.0 0.0 0.00 0.00 0.00 39 1010.3
20260507010033 66 17 0.0 0.0 0.00 0.00 0.00 38 1010.3
20260507005901 66 360 0.0 0.0 0.00 0.00 0.00 38 1010.2
20260507005508 66 9 0.0 0.0 0.00 0.00 0.00 38 1010.2
20260507005423 67 319 0.0 0.0 0.00 0.00 0.00 38 1010.2
20260507005017 67 5 0.0 0.0 0.00 0.00 0.00 38 1010.1
20260507004901 67 9 0.0 0.0 0.00 0.00 0.00 38 1010.2
20260507004526 67 14 0.0 0.0 0.00 0.00 0.00 37 1010.2
20260507004425 67 355 0.0 0.0 0.00 0.00 0.00 37 1010.2
20260507004100 67 18 0.0 0.0 0.00 0.00 0.00 37 1010.2
20260507003915 67 350 0.0 0.0 0.00 0.00 0.00 37 1010.1
20260507003541 67 30 0.0 0.0 0.00 0.00 0.00 38 1010.1
20260507003413 68 9 0.0 0.0 0.00 0.00 0.00 38 1010.1
20260507003002 67 341 0.0 0.0 0.00 0.00 0.00 38 1010.1
20260507002906 68 9 0.0 0.0 0.00 0.00 0.00 38 1010.1
20260507002533 68 5 0.0 0.0 0.00 0.00 0.00 38 1010.0
20260507002427 68 11 0.0 0.0 0.00 0.00 0.00 38 1010.1
20260507002006 68 15 0.0 0.0 0.00 0.00 0.00 38 1010.1
20260507001920 69 355 0.0 0.0 0.00 0.00 0.00 38 1010.1
20260507001540 68 28 0.0 0.0 0.00 0.00 0.00 38 1010.0
20260507001410 69 28 0.0 0.0 0.00 0.00 0.00 38 1010.1
20260507001017 68 51 0.0 0.0 0.00 0.00 0.00 38 1010.1
20260507000932 69 51 0.0 0.0 0.00 0.00 0.00 38 1010.1
20260507000523 68 27 0.0 0.0 0.00 0.00 0.00 38 1010.0
20260507000359 69 49 0.0 0.0 0.00 0.00 0.00 38 1010.0
20260507000050 68 49 0.0 0.0 0.00 0.00 0.00 38 1010.0
20260506235857 68 44 0.0 0.0 0.00 0.00 0.00 38 1010.0
20260506235518 68 355 0.0 0.0 0.00 0.00 0.00 38 1010.0
20260506235417 68 355 0.0 0.0 0.00 0.00 0.00 38 1010.0
20260506235055 68 355 0.0 0.0 0.00 0.00 0.00 38 1010.1
20260506234912 68 43 0.0 0.0 0.00 0.00 0.00 38 1010.0
20260506234524 68 350 0.0 0.0 0.00 0.00 0.00 38 1010.0
20260506234432 68 26 0.0 0.0 0.00 0.00 0.00 38 1010.0
20260506234036 68 22 0.0 0.0 0.00 0.00 0.00 37 1010.0
20260506233905 68 51 0.0 0.0 0.00 0.00 0.00 37 1010.1
20260506233514 68 26 0.0 0.0 0.00 0.00 0.00 37 1010.0
20260506233432 68 45 0.0 0.0 0.00 0.00 0.00 37 1010.1
20260506233027 68 24 0.0 0.0 0.00 0.00 0.00 37 1010.0
20260506232902 68 86 0.0 0.0 0.00 0.00 0.00 37 1010.1
20260506232551 68 86 0.0 0.0 0.00 0.00 0.00 37 1010.1
20260506232357 68 86 0.0 0.0 0.00 0.00 0.00 36 1010.1
20260506232023 68 92 0.0 0.0 0.00 0.00 0.00 36 1010.1
20260506231937 68 92 0.0 0.0 0.00 0.00 0.00 36 1010.2
20260506231536 68 92 0.0 0.0 0.00 0.00 0.00 36 1010.1
20260506231408 68 92 0.0 0.0 0.00 0.00 0.00 36 1010.2
20260506231008 68 92 0.0 0.0 0.00 0.00 0.00 35 1010.2
20260506230905 68 92 0.0 0.0 0.00 0.00 0.00 35 1010.3